Tracking 19193 objects as of 22-Jun-2018
HD Live streaming from Space Station
objects crossing your sky now

TRAILBLAZER 2

Track TRAILBLAZER 2 now!
10-day predictions
TRAILBLAZER 2 is classified as:


NORAD ID: 27609
Int'l Code: 2002-058E
Perigee: 605.5 km
Apogee: 677.2 km
Inclination: 64.6 °
Period: 97.4 minutes
Semi major axis: 7012 km
RCS: 1.4405 m2 (large)
Launch date: December 20, 2002
Source: United States (US)
Launch site: TYURATAM MISSILE AND SPACE COMPLEX (TTMTR)
aabbcc
Your satellite tracking list
Your tracking list is empty




NASA's NSSDC Master Catalog

Two Line Element Set (TLE):
1 27609U 02058E   18173.48046601 -.00000112  00000-0  47826-5 0  9995
2 27609  64.5567 305.3857 0051126 293.5993  65.9747 14.78463491836423
Source of the keplerian elements: AFSPC